Time,TemperatureF,DewpointF,PressureIn,WindDirection,WindDirectionDegrees,WindSpeedMPH,WindSpeedGustMPH,Humidity,HourlyPrecipIn,Conditions,Clouds,dailyrainin,SolarRadiationWatts/m^2,SoftwareType,DateUTC
2013-05-05 00:01:00,57.3,53.8,30.00,NNE,13,3.7,6.9,88,0.00,CLR,OVC,0.00,0.0,WeatherDisplay:10.37,2013-05-05 04:01:00,
2013-05-05 00:06:00,57.2,53.7,30.00,ENE,68,3.4,9.2,88,0.00,CLR,OVC,0.00,0.0,WeatherDisplay:10.37,2013-05-05 04:06:00,
2013-05-05 00:11:00,57.1,53.6,30.00,NE,44,4.4,6.9,88,0.00,CLR,OVC,0.00,0.0,WeatherDisplay:10.37,2013-05-05 04:11:00,
2013-05-05 00:16:00,57.0,53.5,30.00,NE,46,4.5,6.9,88,0.00,CLR,OVC,0.00,0.0,WeatherDisplay:10.37,2013-05-05 04:16:00,
2013-05-05 00:21:00,56.8,53.3,30.00,NE,47,5.0,9.2,88,0.00,CLR,OVC,0.00,0.0,WeatherDisplay:10.37,2013-05-05 04:21:00,
2013-05-05 00:26:00,56.7,53.2,30.00,NE,45,4.7,8.1,88,0.00,CLR,OVC,0.00,0.0,WeatherDisplay:10.37,2013-05-05 04:26:00,
2013-05-05 00:31:00,56.7,53.2,30.00,East,79,4.0,6.0,88,0.00,CLR,OVC,0.00,0.0,WeatherDisplay:10.37,2013-05-05 04:31:00,
2013-05-05 00:36:00,56.6,53.1,30.00,North,5,3.2,4.6,88,0.00,CLR,OVC,0.00,0.0,WeatherDisplay:10.37,2013-05-05 04:36:00,
2013-05-05 00:41:00,56.4,52.9,30.00,NE,42,3.2,4.6,88,0.00,CLR,OVC,0.00,0.0,WeatherDisplay:10.37,2013-05-05 04:41:00,
2013-05-05 00:46:00,56.3,52.8,30.00,North,10,3.2,6.9,88,0.00,CLR,OVC,0.00,0.0,WeatherDisplay:10.37,2013-05-05 04:46:00,
2013-05-05 00:51:00,56.2,53.0,30.00,ENE,70,4.3,8.1,89,0.00,CLR,OVC,0.00,0.0,WeatherDisplay:10.37,2013-05-05 04:51:00,
2013-05-05 00:56:00,56.2,53.0,30.00,NE,49,2.6,6.0,89,0.00,CLR,OVC,0.00,0.0,WeatherDisplay:10.37,2013-05-05 04:56:00,
2013-05-05 01:01:00,56.2,53.0,30.00,NE,55,4.7,6.9,89,0.00,CLR,OVC,0.00,0.0,WeatherDisplay:10.37,2013-05-05 05:01:00,
2013-05-05 01:06:00,56.1,52.9,30.00,NE,53,5.7,8.1,89,0.00,CLR,OVC,0.00,0.0,WeatherDisplay:10.37,2013-05-05 05:06:00,
2013-05-05 01:11:00,56.1,52.9,29.99,NE,55,4.9,8.1,89,0.00,CLR,OVC,0.00,0.0,WeatherDisplay:10.37,2013-05-05 05:11:00,
2013-05-05 01:16:00,56.1,52.9,29.99,NE,49,7.0,11.5,89,0.00,CLR,OVC,0.00,0.0,WeatherDisplay:10.37,2013-05-05 05:16:00,
2013-05-05 01:21:00,56.1,52.9,29.99,ENE,61,5.3,9.2,89,0.00,CLR,OVC,0.00,0.0,WeatherDisplay:10.37,2013-05-05 05:21:00,
2013-05-05 01:26:00,56.0,52.8,29.99,NE,35,5.9,9.2,89,0.00,CLR,OVC,0.00,0.0,WeatherDisplay:10.37,2013-05-05 05:26:00,
2013-05-05 01:31:00,56.0,53.1,29.99,ENE,61,7.5,12.7,90,0.00,CLR,OVC,0.00,0.0,WeatherDisplay:10.37,2013-05-05 05:31:00,
2013-05-05 01:36:00,55.9,53.0,29.98,NE,36,5.2,8.1,90,0.00,CLR,OVC,0.00,0.0,WeatherDisplay:10.37,2013-05-05 05:36:00,
2013-05-05 01:41:00,55.8,52.9,29.98,North,5,5.9,8.1,90,0.00,CLR,OVC,0.00,0.0,WeatherDisplay:10.37,2013-05-05 05:41:00,
2013-05-05 01:46:00,55.7,52.8,29.98,NE,55,3.5,5.8,90,0.00,CLR,OVC,0.00,0.0,WeatherDisplay:10.37,2013-05-05 05:46:00,
2013-05-05 01:51:00,55.6,52.7,29.98,NNE,28,5.5,9.2,90,0.00,CLR,OVC,0.00,0.0,WeatherDisplay:10.37,2013-05-05 05:51:00,
2013-05-05 01:56:00,55.6,52.7,29.98,NE,47,2.9,6.9,90,0.00,CLR,OVC,0.00,0.0,WeatherDisplay:10.37,2013-05-05 05:56:00,
2013-05-05 02:01:00,55.5,52.6,29.98,NE,49,1.3,8.1,90,0.00,CLR,OVC,0.00,0.0,WeatherDisplay:10.37,2013-05-05 06:01:00,
2013-05-05 02:06:00,55.5,52.6,29.98,NE,42,4.3,6.9,90,0.00,CLR,OVC,0.00,0.0,WeatherDisplay:10.37,2013-05-05 06:06:00,
2013-05-05 02:11:00,55.5,52.9,29.98,ENE,63,5.9,10.4,91,0.00,CLR,OVC,0.00,0.0,WeatherDisplay:10.37,2013-05-05 06:11:00,
2013-05-05 02:17:00,55.5,52.9,29.97,NE,49,4.8,8.1,91,0.00,CLR,OVC,0.00,0.0,WeatherDisplay:10.37,2013-05-05 06:17:00,
2013-05-05 02:22:00,55.5,52.9,29.97,NNE,29,4.3,8.1,91,0.00,CLR,OVC,0.00,0.0,WeatherDisplay:10.37,2013-05-05 06:22:00,
2013-05-05 02:27:00,55.5,52.9,29.97,NE,48,4.1,6.9,91,0.00,CLR,OVC,0.00,0.0,WeatherDisplay:10.37,2013-05-05 06:27:00,
2013-05-05 02:32:00,55.5,52.9,29.97,NE,38,4.2,8.1,91,0.00,CLR,OVC,0.00,0.0,WeatherDisplay:10.37,2013-05-05 06:32:00,
2013-05-05 02:37:00,55.5,52.9,29.97,NE,37,4.8,8.1,91,0.00,CLR,OVC,0.00,0.0,WeatherDisplay:10.37,2013-05-05 06:37:00,
2013-05-05 02:42:00,55.5,52.9,29.97,NE,55,6.2,10.4,91,0.00,CLR,OVC,0.00,0.0,WeatherDisplay:10.37,2013-05-05 06:42:00,
2013-05-05 02:47:00,55.5,52.9,29.96,NNE,32,3.6,5.8,91,0.00,CLR,OVC,0.00,0.0,WeatherDisplay:10.37,2013-05-05 06:47:00,
2013-05-05 02:52:00,55.4,52.8,29.96,ENE,62,4.3,5.0,91,0.00,CLR,OVC,0.00,0.0,WeatherDisplay:10.37,2013-05-05 06:52:00,
2013-05-05 02:57:00,55.3,52.7,29.96,ENE,59,6.2,8.1,91,0.00,CLR,OVC,0.00,0.0,WeatherDisplay:10.37,2013-05-05 06:57:00,
2013-05-05 03:02:00,55.3,52.7,29.96,NE,50,2.0,4.6,91,0.00,CLR,OVC,0.00,0.0,WeatherDisplay:10.37,2013-05-05 07:02:00,
2013-05-05 03:07:00,55.2,52.6,29.96,North,11,4.2,5.8,91,0.00,CLR,OVC,0.00,0.0,WeatherDisplay:10.37,2013-05-05 07:07:00,
2013-05-05 03:12:00,55.1,52.5,29.95,NE,53,3.2,5.8,91,0.00,CLR,OVC,0.00,0.0,WeatherDisplay:10.37,2013-05-05 07:12:00,
2013-05-05 03:17:00,55.0,52.4,29.95,NE,45,3.5,3.5,91,0.00,CLR,OVC,0.00,0.0,WeatherDisplay:10.37,2013-05-05 07:17:00,
2013-05-05 03:22:00,54.8,52.2,29.95,ENE,67,1.1,2.3,91,0.00,CLR,OVC,0.00,0.0,WeatherDisplay:10.37,2013-05-05 07:22:00,
2013-05-05 03:27:00,54.7,52.1,29.95,NE,50,3.6,5.8,91,0.00,CLR,OVC,0.00,0.0,WeatherDisplay:10.37,2013-05-05 07:27:00,
2013-05-05 03:32:00,54.5,51.9,29.95,ENE,57,3.3,4.6,91,0.00,CLR,OVC,0.00,0.0,WeatherDisplay:10.37,2013-05-05 07:32:00,
2013-05-05 03:37:00,54.4,52.1,29.95,NE,48,4.5,6.9,92,0.00,CLR,OVC,0.00,0.0,WeatherDisplay:10.37,2013-05-05 07:37:00,
2013-05-05 03:42:00,54.3,52.0,29.95,NNE,33,5.1,8.0,92,0.00,CLR,OVC,0.00,0.0,WeatherDisplay:10.37,2013-05-05 07:42:00,
2013-05-05 03:47:00,54.2,51.9,29.95,NNE,26,4.0,5.0,92,0.00,CLR,OVC,0.00,0.0,WeatherDisplay:10.37,2013-05-05 07:47:00,
2013-05-05 03:52:00,54.1,51.8,29.95,ENE,62,5.5,8.1,92,0.00,CLR,OVC,0.00,0.0,WeatherDisplay:10.37,2013-05-05 07:52:00,
2013-05-05 03:57:00,54.1,51.8,29.95,NE,49,6.3,8.1,92,0.00,CLR,OVC,0.00,0.0,WeatherDisplay:10.37,2013-05-05 07:57:00,
2013-05-05 04:02:00,54.1,51.8,29.95,NNE,23,4.3,8.1,92,0.00,CLR,OVC,0.00,0.0,WeatherDisplay:10.37,2013-05-05 08:02:00,
2013-05-05 04:07:00,54.1,52.1,29.95,NNE,14,3.7,5.8,93,0.00,CLR,OVC,0.00,0.0,WeatherDisplay:10.37,2013-05-05 08:07:00,
2013-05-05 04:12:00,54.1,52.1,29.95,NE,46,4.2,5.0,93,0.00,CLR,OVC,0.00,0.0,WeatherDisplay:10.37,2013-05-05 08:12:00,
2013-05-05 04:17:00,54.1,52.1,29.95,NNE,17,2.8,4.6,93,0.00,CLR,OVC,0.00,0.0,WeatherDisplay:10.37,2013-05-05 08:17:00,
2013-05-05 04:22:00,54.2,52.2,29.95,NE,47,4.4,6.9,93,0.00,CLR,OVC,0.00,0.0,WeatherDisplay:10.37,2013-05-05 08:22:00,
2013-05-05 04:27:00,54.2,52.2,29.95,NE,54,5.0,6.9,93,0.00,CLR,OVC,0.00,0.0,WeatherDisplay:10.37,2013-05-05 08:27:00,
2013-05-05 04:32:00,54.2,52.2,29.95,NE,55,1.5,4.6,93,0.00,CLR,OVC,0.00,0.0,WeatherDisplay:10.37,2013-05-05 08:32:00,
2013-05-05 04:37:00,54.2,52.2,29.95,NNE,32,1.5,3.5,93,0.00,CLR,OVC,0.00,0.0,WeatherDisplay:10.37,2013-05-05 08:37:00,
2013-05-05 04:42:00,54.1,52.1,29.94,NE,49,3.3,5.8,93,0.00,CLR,OVC,0.00,0.0,WeatherDisplay:10.37,2013-05-05 08:42:00,
2013-05-05 04:47:00,54.0,52.0,29.94,NE,49,2.6,4.6,93,0.00,CLR,OVC,0.00,0.0,WeatherDisplay:10.37,2013-05-05 08:47:00,
2013-05-05 04:52:00,53.9,51.9,29.94,NE,55,0.6,2.3,93,0.00,CLR,OVC,0.00,0.0,WeatherDisplay:10.37,2013-05-05 08:52:00,
2013-05-05 04:57:00,53.9,51.9,29.93,NE,51,0.6,3.5,93,0.00,CLR,OVC,0.00,0.0,WeatherDisplay:10.37,2013-05-05 08:57:00,
2013-05-05 05:02:00,53.8,51.8,29.94,NE,36,3.3,6.9,93,0.00,CLR,OVC,0.00,0.0,WeatherDisplay:10.37,2013-05-05 09:02:00,
2013-05-05 05:07:00,53.7,51.7,29.94,NNE,13,1.8,3.5,93,0.00,CLR,OVC,0.00,0.0,WeatherDisplay:10.37,2013-05-05 09:07:00,
2013-05-05 05:12:00,53.7,51.7,29.94,ENE,61,1.1,3.5,93,0.00,CLR,OVC,0.00,0.0,WeatherDisplay:10.37,2013-05-05 09:12:00,
2013-05-05 05:17:00,53.7,52.0,29.94,NE,40,3.0,6.9,94,0.00,CLR,OVC,0.00,0.0,WeatherDisplay:10.37,2013-05-05 09:17:00,
2013-05-05 05:22:00,53.7,52.0,29.94,NE,48,1.2,4.6,94,0.00,CLR,OVC,0.00,0.0,WeatherDisplay:10.37,2013-05-05 09:22:00,
2013-05-05 05:27:00,53.7,52.0,29.95,North,5,1.9,3.5,94,0.00,CLR,OVC,0.00,0.0,WeatherDisplay:10.37,2013-05-05 09:27:00,
2013-05-05 05:32:00,53.8,52.1,29.95,North,349,1.9,3.5,94,0.00,CLR,OVC,0.00,0.0,WeatherDisplay:10.37,2013-05-05 09:32:00,
2013-05-05 05:37:00,53.8,52.1,29.94,NE,43,2.8,3.5,94,0.00,CLR,OVC,0.00,0.0,WeatherDisplay:10.37,2013-05-05 09:37:00,
2013-05-05 05:42:00,53.8,52.1,29.95,NE,42,1.8,4.6,94,0.00,CLR,OVC,0.00,0.0,WeatherDisplay:10.37,2013-05-05 09:42:00,
2013-05-05 05:47:00,53.9,52.2,29.95,North,9,3.0,6.9,94,0.00,CLR,OVC,0.00,0.0,WeatherDisplay:10.37,2013-05-05 09:47:00,
2013-05-05 05:52:00,54.0,52.3,29.95,NE,42,5.2,6.9,94,0.00,CLR,OVC,0.00,0.0,WeatherDisplay:10.37,2013-05-05 09:52:00,
2013-05-05 05:57:00,54.1,52.4,29.94,NE,49,3.7,5.8,94,0.00,CLR,OVC,0.00,0.0,WeatherDisplay:10.37,2013-05-05 09:57:00,
2013-05-05 06:02:00,54.2,52.5,29.94,NE,34,4.3,6.9,94,0.00,CLR,OVC,0.00,0.0,WeatherDisplay:10.37,2013-05-05 10:02:00,
2013-05-05 06:07:00,54.3,52.6,29.94,NE,55,3.5,4.6,94,0.00,OVC,,0.00,0.0,WeatherDisplay:10.37,2013-05-05 10:07:00,
2013-05-05 06:12:00,54.4,52.7,29.94,NNE,32,2.3,5.8,94,0.00,OVC,,0.00,0.0,WeatherDisplay:10.37,2013-05-05 10:12:00,
2013-05-05 06:17:00,54.5,52.8,29.94,East,81,3.6,8.1,94,0.00,OVC,,0.00,0.0,WeatherDisplay:10.37,2013-05-05 10:17:00,
2013-05-05 06:22:00,54.6,52.9,29.94,ENE,75,4.0,5.8,94,0.00,OVC,,0.00,0.0,WeatherDisplay:10.37,2013-05-05 10:22:00,
2013-05-05 06:27:00,54.8,53.1,29.95,NNE,16,5.6,11.5,94,0.00,OVC,,0.00,0.0,WeatherDisplay:10.37,2013-05-05 10:27:00,
2013-05-05 06:32:00,55.0,53.3,29.95,NE,40,5.9,10.4,94,0.00,OVC,,0.00,0.0,WeatherDisplay:10.37,2013-05-05 10:32:00,
2013-05-05 06:37:00,55.2,53.5,29.95,NE,54,4.8,9.2,94,0.00,OVC,,0.00,0.0,WeatherDisplay:10.37,2013-05-05 10:37:00,
2013-05-05 06:42:00,55.3,53.6,29.95,NNE,26,6.5,11.5,94,0.00,OVC,,0.00,0.0,WeatherDisplay:10.37,2013-05-05 10:42:00,
2013-05-05 06:47:00,55.5,53.8,29.95,NE,34,4.7,5.8,94,0.00,OVC,,0.00,0.0,WeatherDisplay:10.37,2013-05-05 10:47:00,
2013-05-05 06:52:00,55.7,54.0,29.95,ENE,74,5.9,10.4,94,0.00,OVC,,0.00,0.0,WeatherDisplay:10.37,2013-05-05 10:52:00,
2013-05-05 06:57:00,56.0,54.3,29.96,ENE,77,7.6,11.5,94,0.00,OVC,,0.00,0.0,WeatherDisplay:10.37,2013-05-05 10:57:00,
2013-05-05 07:02:00,56.2,54.5,29.96,NE,51,3.0,4.6,94,0.00,OVC,,0.00,0.0,WeatherDisplay:10.37,2013-05-05 11:02:00,
2013-05-05 07:07:00,56.4,54.7,29.96,NE,34,3.3,5.8,94,0.00,OVC,,0.00,0.0,WeatherDisplay:10.37,2013-05-05 11:07:00,
2013-05-05 07:12:00,56.7,55.0,29.96,NE,34,5.5,11.0,94,0.00,OVC,,0.00,0.0,WeatherDisplay:10.37,2013-05-05 11:12:00,
2013-05-05 07:17:00,56.9,55.2,29.96,ENE,59,4.1,8.0,94,0.00,OVC,,0.00,0.0,WeatherDisplay:10.37,2013-05-05 11:17:00,
2013-05-05 07:22:00,57.0,55.0,29.96,NNE,28,3.0,4.6,93,0.00,OVC,,0.00,0.0,WeatherDisplay:10.37,2013-05-05 11:22:00,
2013-05-05 07:27:00,57.2,55.2,29.97,NE,53,4.9,9.2,93,0.00,OVC,,0.00,0.0,WeatherDisplay:10.37,2013-05-05 11:27:00,
2013-05-05 07:32:00,57.4,55.4,29.97,ENE,57,7.4,9.2,93,0.00,OVC,,0.00,0.0,WeatherDisplay:10.37,2013-05-05 11:32:00,
2013-05-05 07:37:00,57.5,55.5,29.97,ENE,76,9.8,15.0,93,0.00,OVC,,0.00,0.0,WeatherDisplay:10.37,2013-05-05 11:37:00,
2013-05-05 07:42:00,57.7,55.7,29.97,NE,34,4.1,6.9,93,0.00,OVC,,0.00,0.0,WeatherDisplay:10.37,2013-05-05 11:42:00,
2013-05-05 07:47:00,57.8,55.5,29.97,NE,49,5.2,9.2,92,0.00,OVC,,0.00,0.0,WeatherDisplay:10.37,2013-05-05 11:47:00,
2013-05-05 07:52:00,57.8,55.5,29.96,NNE,24,8.6,11.5,92,0.00,OVC,,0.00,0.0,WeatherDisplay:10.37,2013-05-05 11:52:00,
2013-05-05 07:58:00,57.9,55.6,29.96,East,79,6.1,11.5,92,0.00,OVC,,0.00,0.0,WeatherDisplay:10.37,2013-05-05 11:58:00,
2013-05-05 08:03:00,57.9,55.6,29.96,NNE,25,7.3,11.5,92,0.00,OVC,,0.00,0.0,WeatherDisplay:10.37,2013-05-05 12:03:00,
2013-05-05 08:08:00,58.0,55.7,29.95,North,11,7.6,11.5,92,0.00,OVC,,0.00,0.0,WeatherDisplay:10.37,2013-05-05 12:08:00,
2013-05-05 08:13:00,58.1,55.8,29.96,East,80,7.9,11.5,92,0.00,OVC,,0.00,0.0,WeatherDisplay:10.37,2013-05-05 12:13:00,
2013-05-05 08:18:00,58.3,56.0,29.96,ENE,62,9.0,11.5,92,0.00,OVC,,0.00,0.0,WeatherDisplay:10.37,2013-05-05 12:18:00,
2013-05-05 08:23:00,58.5,56.2,29.96,NNW,348,7.1,11.5,92,0.00,OVC,,0.00,0.0,WeatherDisplay:10.37,2013-05-05 12:23:00,
2013-05-05 08:28:00,58.6,56.3,29.96,North,5,5.9,11.5,92,0.00,OVC,,0.00,0.0,WeatherDisplay:10.37,2013-05-05 12:28:00,
2013-05-05 08:33:00,58.7,56.4,29.97,NNE,27,8.3,11.5,92,0.00,OVC,,0.00,0.0,WeatherDisplay:10.37,2013-05-05 12:33:00,
2013-05-05 08:38:00,58.7,56.4,29.97,ENE,68,9.1,12.0,92,0.00,OVC,,0.00,0.0,WeatherDisplay:10.37,2013-05-05 12:38:00,
2013-05-05 08:43:00,58.8,56.5,29.96,NE,38,9.7,12.7,92,0.00,OVC,,0.00,0.0,WeatherDisplay:10.37,2013-05-05 12:43:00,
2013-05-05 08:48:00,58.9,56.6,29.96,ENE,71,9.9,13.8,92,0.00,OVC,,0.00,0.0,WeatherDisplay:10.37,2013-05-05 12:48:00,
2013-05-05 08:53:00,59.0,56.7,29.96,NNE,14,9.3,15.0,92,0.00,OVC,,0.00,0.0,WeatherDisplay:10.37,2013-05-05 12:53:00,
2013-05-05 08:58:00,59.2,56.9,29.96,NE,51,10.4,12.7,92,0.00,OVC,,0.00,0.0,WeatherDisplay:10.37,2013-05-05 12:58:00,
2013-05-05 09:03:00,59.4,57.1,29.96,NE,44,7.7,13.8,92,0.00,OVC,,0.00,0.0,WeatherDisplay:10.37,2013-05-05 13:03:00,
2013-05-05 09:08:00,59.6,57.3,29.96,NE,44,8.3,11.5,92,0.00,OVC,,0.00,0.0,WeatherDisplay:10.37,2013-05-05 13:08:00,
2013-05-05 09:13:00,59.9,57.6,29.96,NE,47,8.6,11.5,92,0.00,OVC,,0.00,0.0,WeatherDisplay:10.37,2013-05-05 13:13:00,
2013-05-05 09:18:00,60.3,57.7,29.96,ENE,65,8.5,14.0,91,0.00,OVC,,0.00,0.0,WeatherDisplay:10.37,2013-05-05 13:18:00,
2013-05-05 09:23:00,60.5,57.9,29.96,ENE,71,6.7,13.8,91,0.00,OVC,,0.00,0.0,WeatherDisplay:10.37,2013-05-05 13:23:00,
2013-05-05 09:28:00,60.8,58.2,29.96,ENE,74,6.9,10.4,91,0.00,OVC,,0.00,0.0,WeatherDisplay:10.37,2013-05-05 13:28:00,
2013-05-05 09:33:00,61.2,58.2,29.96,NNE,20,7.2,11.5,90,0.00,OVC,,0.00,0.0,WeatherDisplay:10.37,2013-05-05 13:33:00,
2013-05-05 09:38:00,61.7,58.4,29.96,ENE,77,7.5,13.8,89,0.00,OVC,,0.00,0.0,WeatherDisplay:10.37,2013-05-05 13:38:00,
2013-05-05 09:43:00,62.4,59.1,29.96,ENE,61,10.2,12.7,89,0.00,OVC,,0.00,0.0,WeatherDisplay:10.37,2013-05-05 13:43:00,
2013-05-05 09:48:00,63.0,59.4,29.95,NE,46,8.4,11.5,88,0.00,OVC,,0.00,0.0,WeatherDisplay:10.37,2013-05-05 13:48:00,
2013-05-05 09:53:00,63.6,59.7,29.95,ENE,57,8.2,13.8,87,0.00,OVC,,0.00,0.0,WeatherDisplay:10.37,2013-05-05 13:53:00,
2013-05-05 09:58:00,64.0,59.7,29.96,NE,46,7.8,12.7,86,0.00,OVC,,0.00,0.0,WeatherDisplay:10.37,2013-05-05 13:58:00,
2013-05-05 10:03:00,64.4,59.8,29.96,NNE,26,11.3,16.1,85,0.00,OVC,,0.00,0.0,WeatherDisplay:10.37,2013-05-05 14:03:00,
2013-05-05 10:08:00,64.6,60.0,29.96,NE,46,10.2,16.1,85,0.00,OVC,,0.00,0.0,WeatherDisplay:10.37,2013-05-05 14:08:00,
2013-05-05 10:13:00,64.7,60.1,29.96,NE,35,11.8,16.1,85,0.00,OVC,,0.00,0.0,WeatherDisplay:10.37,2013-05-05 14:13:00,
2013-05-05 10:18:00,64.7,60.1,29.96,ENE,69,11.6,16.0,85,0.00,OVC,,0.00,0.0,WeatherDisplay:10.37,2013-05-05 14:18:00,
2013-05-05 10:23:00,64.8,59.9,29.96,ENE,58,7.6,16.1,84,0.00,OVC,,0.00,0.0,WeatherDisplay:10.37,2013-05-05 14:23:00,
2013-05-05 10:28:00,64.5,59.9,29.97,NE,38,11.3,17.3,85,0.00,OVC,,0.00,0.0,WeatherDisplay:10.37,2013-05-05 14:28:00,
2013-05-05 10:33:00,64.4,59.8,29.96,ENE,66,11.8,17.3,85,0.00,OVC,,0.00,0.0,WeatherDisplay:10.37,2013-05-05 14:33:00,
2013-05-05 10:38:00,64.7,60.1,29.97,NE,49,10.3,15.0,85,0.00,OVC,,0.00,0.0,WeatherDisplay:10.37,2013-05-05 14:38:00,
2013-05-05 10:43:00,65.4,60.8,29.97,NNE,17,7.7,16.1,85,0.00,OVC,,0.00,0.0,WeatherDisplay:10.37,2013-05-05 14:43:00,
2013-05-05 10:48:00,65.9,60.9,29.97,ENE,57,7.8,24.2,84,0.00,OVC,,0.00,0.0,WeatherDisplay:10.37,2013-05-05 14:48:00,
2013-05-05 10:53:00,66.2,60.5,29.96,ENE,59,11.6,17.3,82,0.00,OVC,,0.00,0.0,WeatherDisplay:10.37,2013-05-05 14:53:00,
2013-05-05 10:58:00,66.7,61.4,29.96,NE,53,8.4,13.8,83,0.00,OVC,,0.00,0.0,WeatherDisplay:10.37,2013-05-05 14:58:00,
2013-05-05 11:03:00,67.4,61.4,29.96,NE,49,7.7,11.5,81,0.00,OVC,,0.00,0.0,WeatherDisplay:10.37,2013-05-05 15:03:00,
2013-05-05 11:08:00,67.5,61.8,29.96,ESE,109,10.0,13.8,82,0.00,OVC,,0.00,0.0,WeatherDisplay:10.37,2013-05-05 15:08:00,
2013-05-05 11:13:00,68.2,62.1,29.96,East,84,5.6,9.2,81,0.00,OVC,,0.00,0.0,WeatherDisplay:10.37,2013-05-05 15:13:00,
2013-05-05 11:18:00,68.3,61.5,29.96,East,82,11.6,17.3,79,0.00,OVC,,0.00,0.0,WeatherDisplay:10.37,2013-05-05 15:18:00,
2013-05-05 11:23:00,67.6,61.2,29.96,East,82,13.0,26.5,80,0.00,OVC,,0.00,0.0,WeatherDisplay:10.37,2013-05-05 15:23:00,
2013-05-05 11:28:00,67.5,61.5,29.97,East,84,10.1,23.0,81,0.00,OVC,,0.00,0.0,WeatherDisplay:10.37,2013-05-05 15:28:00,
2013-05-05 11:33:00,67.9,61.5,29.96,ENE,63,12.4,18.4,80,0.00,OVC,,0.00,0.0,WeatherDisplay:10.37,2013-05-05 15:33:00,
2013-05-05 11:38:00,68.2,62.1,29.96,NE,49,6.1,12.7,81,0.00,OVC,,0.00,0.0,WeatherDisplay:10.37,2013-05-05 15:38:00,
2013-05-05 11:43:00,68.7,62.3,29.96,ENE,71,6.9,8.1,80,0.00,OVC,,0.00,0.0,WeatherDisplay:10.37,2013-05-05 15:43:00,
2013-05-05 11:48:00,69.1,62.3,29.96,NE,54,8.8,13.8,79,0.00,OVC,,0.00,0.0,WeatherDisplay:10.37,2013-05-05 15:48:00,
2013-05-05 11:53:00,69.0,61.9,29.96,East,93,12.8,19.6,78,0.00,OVC,,0.00,0.0,WeatherDisplay:10.37,2013-05-05 15:53:00,
2013-05-05 11:58:00,68.7,61.9,29.96,NE,46,5.4,12.7,79,0.00,OVC,,0.00,0.0,WeatherDisplay:10.37,2013-05-05 15:58:00,
2013-05-05 12:03:00,68.6,61.8,29.96,East,97,7.1,11.5,79,0.00,OVC,,0.00,0.0,WeatherDisplay:10.37,2013-05-05 16:03:00,
2013-05-05 12:08:00,68.4,61.6,29.95,NE,40,11.1,20.7,79,0.00,OVC,,0.00,0.0,WeatherDisplay:10.37,2013-05-05 16:08:00,
2013-05-05 12:13:00,68.4,62.0,29.96,NE,36,8.3,16.1,80,0.00,OVC,,0.00,0.0,WeatherDisplay:10.37,2013-05-05 16:13:00,
2013-05-05 12:18:00,68.9,62.5,29.95,North,5,8.6,18.4,80,0.00,OVC,,0.00,0.0,WeatherDisplay:10.37,2013-05-05 16:18:00,
2013-05-05 12:23:00,69.2,62.4,29.96,North,10,7.5,18.0,79,0.00,OVC,,0.00,0.0,WeatherDisplay:10.37,2013-05-05 16:23:00,
2013-05-05 12:28:00,68.9,61.8,29.95,East,85,11.9,17.3,78,0.00,OVC,,0.00,0.0,WeatherDisplay:10.37,2013-05-05 16:28:00,
2013-05-05 12:33:00,68.4,61.6,29.95,ENE,70,10.1,19.6,79,0.00,OVC,,0.00,0.0,WeatherDisplay:10.37,2013-05-05 16:33:00,
2013-05-05 12:38:00,68.7,62.6,29.95,ENE,64,8.1,11.5,81,0.00,OVC,,0.00,0.0,WeatherDisplay:10.37,2013-05-05 16:38:00,
2013-05-05 12:43:00,68.9,62.1,29.96,North,5,9.4,15.0,79,0.00,OVC,,0.00,0.0,WeatherDisplay:10.37,2013-05-05 16:43:00,
2013-05-05 12:48:00,68.8,62.4,29.96,North,360,9.3,16.1,80,0.00,OVC,,0.00,0.0,WeatherDisplay:10.37,2013-05-05 16:48:00,
2013-05-05 12:53:00,68.5,61.7,29.95,East,93,13.8,20.7,79,0.00,OVC,,0.00,0.0,WeatherDisplay:10.37,2013-05-05 16:53:00,
2013-05-05 12:58:00,68.2,61.8,29.95,ENE,67,7.9,11.5,80,0.00,OVC,,0.00,0.0,WeatherDisplay:10.37,2013-05-05 16:58:00,
2013-05-05 13:03:00,68.1,62.0,29.95,NE,55,5.6,11.5,81,0.00,OVC,,0.00,0.0,WeatherDisplay:10.37,2013-05-05 17:03:00,
2013-05-05 13:08:00,68.2,62.1,29.95,ENE,71,8.9,16.0,81,0.00,OVC,,0.00,0.0,WeatherDisplay:10.37,2013-05-05 17:08:00,
2013-05-05 13:13:00,68.2,61.8,29.95,ENE,65,10.4,15.0,80,0.00,OVC,,0.00,0.0,WeatherDisplay:10.37,2013-05-05 17:13:00,
2013-05-05 13:18:00,68.1,61.7,29.95,ENE,71,10.4,17.3,80,0.00,OVC,,0.00,0.0,WeatherDisplay:10.37,2013-05-05 17:18:00,
2013-05-05 13:23:00,68.0,61.6,29.95,ENE,75,10.7,16.1,80,0.00,OVC,,0.00,0.0,WeatherDisplay:10.37,2013-05-05 17:23:00,
2013-05-05 13:28:00,68.3,62.2,29.95,NE,49,7.8,12.7,81,0.00,OVC,,0.00,0.0,WeatherDisplay:10.37,2013-05-05 17:28:00,
2013-05-05 13:33:00,68.3,61.9,29.95,NE,45,10.4,19.6,80,0.00,OVC,,0.00,0.0,WeatherDisplay:10.37,2013-05-05 17:33:00,
2013-05-05 13:38:00,68.2,62.1,29.95,ENE,62,7.7,13.0,81,0.00,OVC,,0.00,0.0,WeatherDisplay:10.37,2013-05-05 17:38:00,
2013-05-05 13:43:00,67.9,61.9,29.95,NE,36,7.0,14.0,81,0.00,OVC,,0.00,0.0,WeatherDisplay:10.37,2013-05-05 17:43:00,
2013-05-05 13:48:00,67.8,61.8,29.95,NNW,340,7.5,12.7,81,0.00,OVC,,0.00,0.0,WeatherDisplay:10.37,2013-05-05 17:48:00,
2013-05-05 13:54:00,67.9,61.9,29.94,NE,49,6.4,15.0,81,0.00,OVC,,0.00,0.0,WeatherDisplay:10.37,2013-05-05 17:54:00,
2013-05-05 13:59:00,68.1,62.4,29.94,ENE,62,3.9,7.0,82,0.00,OVC,,0.00,0.0,WeatherDisplay:10.37,2013-05-05 17:59:00,
2013-05-05 14:04:00,67.9,61.9,29.94,ENE,62,11.4,18.4,81,0.00,OVC,,0.00,0.0,WeatherDisplay:10.37,2013-05-05 18:04:00,
2013-05-05 14:09:00,67.4,61.7,29.94,NNE,23,5.5,10.4,82,0.00,OVC,,0.00,0.0,WeatherDisplay:10.37,2013-05-05 18:09:00,
2013-05-05 14:14:00,67.3,61.6,29.94,ENE,70,8.2,15.0,82,0.00,OVC,,0.00,0.0,WeatherDisplay:10.37,2013-05-05 18:14:00,
2013-05-05 14:19:00,67.1,61.8,29.94,NE,50,8.1,11.5,83,0.00,OVC,,0.00,0.0,WeatherDisplay:10.37,2013-05-05 18:19:00,
2013-05-05 14:24:00,66.6,61.9,29.94,ENE,76,9.9,15.0,85,0.01,RA,OVC,0.01,0.0,WeatherDisplay:10.37,2013-05-05 18:24:00,
2013-05-05 14:29:00,66.1,61.5,29.94,ESE,108,11.7,16.1,85,0.01,RA,OVC,0.01,0.0,WeatherDisplay:10.37,2013-05-05 18:29:00,
2013-05-05 14:34:00,66.1,61.5,29.94,North,355,8.9,16.1,85,0.01,OVC,,0.01,0.0,WeatherDisplay:10.37,2013-05-05 18:34:00,
2013-05-05 14:39:00,66.5,62.2,29.94,ENE,63,5.3,9.2,86,0.01,OVC,,0.01,0.0,WeatherDisplay:10.37,2013-05-05 18:39:00,
2013-05-05 14:44:00,66.9,62.2,29.94,East,84,4.2,9.2,85,0.01,OVC,,0.01,0.0,WeatherDisplay:10.37,2013-05-05 18:44:00,
2013-05-05 14:49:00,67.2,62.5,29.94,ENE,63,8.2,12.0,85,0.01,OVC,,0.01,0.0,WeatherDisplay:10.37,2013-05-05 18:49:00,
2013-05-05 14:54:00,67.4,62.4,29.94,ENE,57,4.8,10.4,84,0.01,OVC,,0.01,0.0,WeatherDisplay:10.37,2013-05-05 18:54:00,
2013-05-05 14:59:00,67.5,62.2,29.93,NE,48,8.1,13.8,83,0.01,OVC,,0.01,0.0,WeatherDisplay:10.37,2013-05-05 18:59:00,
2013-05-05 15:04:00,67.4,62.1,29.93,East,80,6.9,11.5,83,0.01,OVC,,0.01,0.0,WeatherDisplay:10.37,2013-05-05 19:04:00,
2013-05-05 15:09:00,67.0,62.3,29.93,ESE,103,3.8,10.4,85,0.01,OVC,,0.01,0.0,WeatherDisplay:10.37,2013-05-05 19:09:00,
2013-05-05 15:14:00,66.5,62.5,29.93,ENE,63,6.2,9.2,87,0.01,OVC,,0.01,0.0,WeatherDisplay:10.37,2013-05-05 19:14:00,
2013-05-05 15:19:00,66.2,62.5,29.93,ENE,76,5.1,11.5,88,0.02,RA,OVC,0.02,0.0,WeatherDisplay:10.37,2013-05-05 19:19:00,
2013-05-05 15:24:00,66.1,62.8,29.93,NE,34,2.7,4.6,89,0.01,RA,OVC,0.02,0.0,WeatherDisplay:10.37,2013-05-05 19:24:00,
2013-05-05 15:29:00,66.3,62.6,29.93,ENE,62,8.3,11.5,88,0.01,OVC,,0.02,0.0,WeatherDisplay:10.37,2013-05-05 19:29:00,
2013-05-05 15:34:00,66.5,62.5,29.93,NE,45,8.1,15.0,87,0.01,OVC,,0.02,0.0,WeatherDisplay:10.37,2013-05-05 19:34:00,
2013-05-05 15:39:00,66.6,62.6,29.93,NE,53,3.0,10.4,87,0.01,OVC,,0.02,0.0,WeatherDisplay:10.37,2013-05-05 19:39:00,
2013-05-05 15:44:00,66.7,62.4,29.93,NW,316,6.0,11.5,86,0.01,OVC,,0.02,0.0,WeatherDisplay:10.37,2013-05-05 19:44:00,
2013-05-05 15:49:00,66.6,62.3,29.93,East,91,3.8,10.4,86,0.01,OVC,,0.02,0.0,WeatherDisplay:10.37,2013-05-05 19:49:00,
2013-05-05 15:54:00,66.5,62.2,29.93,NE,53,4.6,8.1,86,0.01,OVC,,0.02,0.0,WeatherDisplay:10.37,2013-05-05 19:54:00,
2013-05-05 15:59:00,66.3,62.0,29.92,NE,54,6.2,11.5,86,0.01,OVC,,0.02,0.0,WeatherDisplay:10.37,2013-05-05 19:59:00,
2013-05-05 16:04:00,66.0,61.7,29.92,East,88,3.6,9.2,86,0.01,OVC,,0.02,0.0,WeatherDisplay:10.37,2013-05-05 20:04:00,
2013-05-05 16:09:00,65.9,61.9,29.93,NE,40,4.0,6.0,87,0.01,OVC,,0.02,0.0,WeatherDisplay:10.37,2013-05-05 20:09:00,
2013-05-05 16:14:00,65.8,61.8,29.93,NE,38,7.6,11.5,87,0.01,OVC,,0.02,0.0,WeatherDisplay:10.37,2013-05-05 20:14:00,
2013-05-05 16:19:00,65.7,62.0,29.92,ENE,61,4.9,9.2,88,0.01,RA,OVC,0.03,0.0,WeatherDisplay:10.37,2013-05-05 20:19:00,
2013-05-05 16:24:00,65.3,62.3,29.93,ENE,71,4.6,11.5,90,0.01,RA,OVC,0.03,0.0,WeatherDisplay:10.37,2013-05-05 20:24:00,
2013-05-05 16:29:00,65.2,62.5,29.93,ENE,68,4.3,8.0,91,0.01,OVC,,0.03,0.0,WeatherDisplay:10.37,2013-05-05 20:29:00,
2013-05-05 16:34:00,65.2,62.5,29.92,ENE,76,4.7,8.1,91,0.01,OVC,,0.03,0.0,WeatherDisplay:10.37,2013-05-05 20:34:00,
2013-05-05 16:39:00,65.3,62.3,29.92,ENE,73,3.7,10.4,90,0.01,OVC,,0.03,0.0,WeatherDisplay:10.37,2013-05-05 20:39:00,
2013-05-05 16:44:00,65.2,62.2,29.92,ENE,63,3.9,9.2,90,0.01,OVC,,0.03,0.0,WeatherDisplay:10.37,2013-05-05 20:44:00,
2013-05-05 16:49:00,65.3,62.3,29.92,East,83,5.8,7.0,90,0.01,OVC,,0.03,0.0,WeatherDisplay:10.37,2013-05-05 20:49:00,
2013-05-05 16:54:00,65.3,62.3,29.92,ENE,69,7.1,8.0,90,0.01,OVC,,0.03,0.0,WeatherDisplay:10.37,2013-05-05 20:54:00,
2013-05-05 16:59:00,65.2,62.2,29.92,NNE,25,6.0,11.5,90,0.01,OVC,,0.03,0.0,WeatherDisplay:10.37,2013-05-05 20:59:00,
2013-05-05 17:04:00,65.1,62.4,29.92,ENE,77,8.1,11.5,91,0.01,OVC,,0.03,0.0,WeatherDisplay:10.37,2013-05-05 21:04:00,
2013-05-05 17:09:00,64.9,62.2,29.92,NNE,30,7.6,13.8,91,0.01,OVC,,0.03,0.0,WeatherDisplay:10.37,2013-05-05 21:09:00,
2013-05-05 17:14:00,64.6,61.9,29.92,East,92,6.9,11.5,91,0.01,OVC,,0.03,0.0,WeatherDisplay:10.37,2013-05-05 21:14:00,
2013-05-05 17:19:00,64.5,62.1,29.92,East,100,2.6,8.1,92,0.00,OVC,,0.03,0.0,WeatherDisplay:10.37,2013-05-05 21:19:00,
2013-05-05 17:24:00,64.7,62.3,29.92,ENE,62,6.6,11.5,92,0.00,OVC,,0.03,0.0,WeatherDisplay:10.37,2013-05-05 21:24:00,
2013-05-05 17:29:00,64.8,62.1,29.92,ENE,58,3.0,8.1,91,0.00,OVC,,0.03,0.0,WeatherDisplay:10.37,2013-05-05 21:29:00,
2013-05-05 17:34:00,65.0,62.3,29.92,NE,36,3.1,8.1,91,0.00,OVC,,0.03,0.0,WeatherDisplay:10.37,2013-05-05 21:34:00,
2013-05-05 17:39:00,65.2,62.5,29.92,ENE,62,3.5,8.1,91,0.00,OVC,,0.03,0.0,WeatherDisplay:10.37,2013-05-05 21:39:00,
2013-05-05 17:44:00,65.3,62.3,29.92,East,84,6.2,8.1,90,0.00,OVC,,0.03,0.0,WeatherDisplay:10.37,2013-05-05 21:44:00,
2013-05-05 17:49:00,65.5,62.5,29.92,ENE,67,2.5,3.5,90,0.00,OVC,,0.03,0.0,WeatherDisplay:10.37,2013-05-05 21:49:00,
2013-05-05 17:54:00,65.9,62.9,29.92,ENE,65,3.0,9.2,90,0.00,OVC,,0.03,0.0,WeatherDisplay:10.37,2013-05-05 21:54:00,
2013-05-05 17:59:00,66.2,62.9,29.92,ENE,65,5.2,9.2,89,0.00,OVC,,0.03,0.0,WeatherDisplay:10.37,2013-05-05 21:59:00,
2013-05-05 18:04:00,66.3,63.0,29.91,ENE,57,3.5,4.6,89,0.00,OVC,,0.03,0.0,WeatherDisplay:10.37,2013-05-05 22:04:00,
2013-05-05 18:09:00,66.6,63.3,29.91,NE,38,0.6,2.3,89,0.00,OVC,,0.03,0.0,WeatherDisplay:10.37,2013-05-05 22:09:00,
2013-05-05 18:14:00,66.8,62.8,29.91,East,88,6.0,8.1,87,0.00,OVC,,0.03,0.0,WeatherDisplay:10.37,2013-05-05 22:14:00,
2013-05-05 18:19:00,67.1,62.4,29.91,NE,38,2.0,3.5,85,0.00,OVC,,0.03,0.0,WeatherDisplay:10.37,2013-05-05 22:19:00,
2013-05-05 18:24:00,67.3,62.3,29.90,ENE,65,4.2,6.9,84,0.00,OVC,,0.03,0.0,WeatherDisplay:10.37,2013-05-05 22:24:00,
2013-05-05 18:29:00,67.5,62.5,29.90,NE,45,3.7,10.4,84,0.00,OVC,,0.03,0.0,WeatherDisplay:10.37,2013-05-05 22:29:00,
2013-05-05 18:34:00,67.6,62.6,29.90,East,86,4.9,7.0,84,0.00,OVC,,0.03,0.0,WeatherDisplay:10.37,2013-05-05 22:34:00,
2013-05-05 18:39:00,67.6,62.6,29.90,ESE,111,2.9,5.8,84,0.00,OVC,,0.03,0.0,WeatherDisplay:10.37,2013-05-05 22:39:00,
2013-05-05 18:44:00,67.5,62.5,29.90,East,85,4.2,5.8,84,0.00,OVC,,0.03,0.0,WeatherDisplay:10.37,2013-05-05 22:44:00,
2013-05-05 18:49:00,67.4,62.4,29.90,East,94,3.6,4.6,84,0.00,OVC,,0.03,0.0,WeatherDisplay:10.37,2013-05-05 22:49:00,
2013-05-05 18:54:00,67.4,62.1,29.91,ESE,109,5.5,9.2,83,0.00,OVC,,0.03,0.0,WeatherDisplay:10.37,2013-05-05 22:54:00,
2013-05-05 18:59:00,67.4,62.1,29.90,ESE,108,3.7,6.9,83,0.00,OVC,,0.03,0.0,WeatherDisplay:10.37,2013-05-05 22:59:00,
2013-05-05 19:04:00,67.5,62.2,29.90,ESE,115,5.6,9.2,83,0.00,OVC,,0.03,0.0,WeatherDisplay:10.37,2013-05-05 23:04:00,
2013-05-05 19:09:00,67.6,62.3,29.90,ENE,67,2.8,8.1,83,0.00,OVC,,0.03,0.0,WeatherDisplay:10.37,2013-05-05 23:09:00,
2013-05-05 19:14:00,67.7,62.0,29.90,ENE,74,5.4,10.4,82,0.00,OVC,,0.03,0.0,WeatherDisplay:10.37,2013-05-05 23:14:00,
2013-05-05 19:19:00,67.8,61.8,29.90,ESE,106,5.1,10.4,81,0.00,OVC,,0.03,0.0,WeatherDisplay:10.37,2013-05-05 23:19:00,
2013-05-05 19:24:00,67.8,61.8,29.90,ESE,117,2.3,4.6,81,0.00,OVC,,0.03,0.0,WeatherDisplay:10.37,2013-05-05 23:24:00,
2013-05-05 19:29:00,67.7,61.7,29.90,East,101,4.0,9.2,81,0.00,OVC,,0.03,0.0,WeatherDisplay:10.37,2013-05-05 23:29:00,
2013-05-05 19:34:00,67.7,61.7,29.90,ENE,72,4.3,8.1,81,0.00,OVC,,0.03,0.0,WeatherDisplay:10.37,2013-05-05 23:34:00,
2013-05-05 19:40:00,67.5,61.8,29.90,ESE,104,3.9,9.2,82,0.00,OVC,,0.03,0.0,WeatherDisplay:10.37,2013-05-05 23:40:00,
2013-05-05 19:45:00,67.4,61.7,29.90,East,84,2.0,4.6,82,0.00,OVC,,0.03,0.0,WeatherDisplay:10.37,2013-05-05 23:45:00,
2013-05-05 19:50:00,67.2,61.5,29.90,ENE,62,1.9,5.8,82,0.00,OVC,,0.03,0.0,WeatherDisplay:10.37,2013-05-05 23:50:00,
2013-05-05 19:55:00,67.2,61.5,29.90,ENE,71,7.2,10.4,82,0.00,OVC,,0.03,0.0,WeatherDisplay:10.37,2013-05-05 23:55:00,
2013-05-05 20:00:00,66.8,61.8,29.90,ENE,64,4.5,9.2,84,0.01,RA,OVC,0.04,0.0,WeatherDisplay:10.37,2013-05-06 00:00:00,
2013-05-05 20:05:00,66.1,61.5,29.90,NE,44,7.1,13.8,85,0.01,RA,OVC,0.04,0.0,WeatherDisplay:10.37,2013-05-06 00:05:00,
2013-05-05 20:10:00,65.5,61.2,29.91,ENE,67,5.7,8.0,86,0.01,CLR,OVC,0.04,0.0,WeatherDisplay:10.37,2013-05-06 00:10:00,
2013-05-05 20:15:00,65.2,61.2,29.91,East,100,3.6,8.1,87,0.01,CLR,OVC,0.04,0.0,WeatherDisplay:10.37,2013-05-06 00:15:00,
2013-05-05 20:20:00,65.1,61.5,29.91,East,98,5.5,10.4,88,0.01,CLR,OVC,0.04,0.0,WeatherDisplay:10.37,2013-05-06 00:20:00,
2013-05-05 20:25:00,64.9,61.3,29.92,ENE,78,6.0,11.5,88,0.01,CLR,OVC,0.04,0.0,WeatherDisplay:10.37,2013-05-06 00:25:00,
2013-05-05 20:30:00,64.9,61.3,29.91,ENE,72,4.5,8.1,88,0.01,CLR,OVC,0.04,0.0,WeatherDisplay:10.37,2013-05-06 00:30:00,
2013-05-05 20:35:00,64.9,61.3,29.91,ENE,69,5.6,10.4,88,0.01,CLR,OVC,0.04,0.0,WeatherDisplay:10.37,2013-05-06 00:35:00,
2013-05-05 20:40:00,64.9,61.3,29.91,ESE,111,6.5,11.0,88,0.01,CLR,OVC,0.04,0.0,WeatherDisplay:10.37,2013-05-06 00:40:00,
2013-05-05 20:45:00,65.0,61.4,29.91,NE,34,7.9,11.5,88,0.01,CLR,OVC,0.04,0.0,WeatherDisplay:10.37,2013-05-06 00:45:00,
2013-05-05 20:50:00,65.1,61.1,29.91,NE,34,5.7,8.1,87,0.01,CLR,OVC,0.04,0.0,WeatherDisplay:10.37,2013-05-06 00:50:00,
2013-05-05 20:55:00,65.3,61.3,29.92,ENE,74,2.5,4.6,87,0.01,CLR,OVC,0.04,0.0,WeatherDisplay:10.37,2013-05-06 00:55:00,
2013-05-05 21:00:00,65.3,61.7,29.92,NE,54,7.8,12.7,88,0.00,CLR,OVC,0.04,0.0,WeatherDisplay:10.37,2013-05-06 01:00:00,
2013-05-05 21:05:00,65.2,61.6,29.92,ENE,77,5.4,9.2,88,0.00,CLR,OVC,0.04,0.0,WeatherDisplay:10.37,2013-05-06 01:05:00,
2013-05-05 21:10:00,65.0,61.4,29.92,NE,38,5.8,10.0,88,0.00,CLR,OVC,0.04,0.0,WeatherDisplay:10.37,2013-05-06 01:10:00,
2013-05-05 21:15:00,64.6,61.3,29.92,NE,49,5.5,11.5,89,0.00,CLR,OVC,0.04,0.0,WeatherDisplay:10.37,2013-05-06 01:15:00,
2013-05-05 21:20:00,64.4,61.1,29.91,ENE,59,8.0,9.2,89,0.00,CLR,OVC,0.04,0.0,WeatherDisplay:10.37,2013-05-06 01:20:00,
2013-05-05 21:25:00,64.2,60.9,29.91,NE,49,6.7,11.0,89,0.00,CLR,OVC,0.04,0.0,WeatherDisplay:10.37,2013-05-06 01:25:00,
2013-05-05 21:30:00,64.1,60.8,29.91,ENE,69,6.6,11.5,89,0.00,CLR,OVC,0.04,0.0,WeatherDisplay:10.37,2013-05-06 01:30:00,
2013-05-05 21:35:00,64.1,61.1,29.91,ENE,75,4.6,9.2,90,0.00,CLR,OVC,0.04,0.0,WeatherDisplay:10.37,2013-05-06 01:35:00,
2013-05-05 21:40:00,64.1,61.1,29.92,East,90,7.7,12.7,90,0.00,CLR,OVC,0.04,0.0,WeatherDisplay:10.37,2013-05-06 01:40:00,
2013-05-05 21:45:00,64.0,61.0,29.91,ENE,78,7.1,10.4,90,0.00,CLR,OVC,0.04,0.0,WeatherDisplay:10.37,2013-05-06 01:45:00,
2013-05-05 21:50:00,63.8,61.1,29.91,NE,44,6.0,12.7,91,0.00,CLR,OVC,0.04,0.0,WeatherDisplay:10.37,2013-05-06 01:50:00,
2013-05-05 21:55:00,63.7,61.0,29.92,ENE,65,5.1,12.0,91,0.00,CLR,OVC,0.04,0.0,WeatherDisplay:10.37,2013-05-06 01:55:00,
2013-05-05 22:00:00,63.6,60.9,29.92,ENE,76,5.5,8.0,91,0.00,CLR,OVC,0.04,0.0,WeatherDisplay:10.37,2013-05-06 02:00:00,
2013-05-05 22:05:00,63.6,60.9,29.92,ENE,58,7.7,13.8,91,0.00,CLR,OVC,0.04,0.0,WeatherDisplay:10.37,2013-05-06 02:05:00,
2013-05-05 22:10:00,63.7,61.0,29.92,NNE,19,7.0,9.2,91,0.00,CLR,OVC,0.04,0.0,WeatherDisplay:10.37,2013-05-06 02:10:00,
2013-05-05 22:15:00,63.7,61.0,29.91,NE,40,9.9,11.5,91,0.00,CLR,OVC,0.04,0.0,WeatherDisplay:10.37,2013-05-06 02:15:00,
2013-05-05 22:20:00,63.7,61.0,29.91,NNE,24,7.6,11.5,91,0.00,CLR,OVC,0.04,0.0,WeatherDisplay:10.37,2013-05-06 02:20:00,
2013-05-05 22:25:00,63.5,60.8,29.91,ENE,57,5.0,11.5,91,0.00,CLR,OVC,0.04,0.0,WeatherDisplay:10.37,2013-05-06 02:25:00,
2013-05-05 22:30:00,63.4,60.7,29.91,ENE,67,9.7,13.0,91,0.00,CLR,OVC,0.04,0.0,WeatherDisplay:10.37,2013-05-06 02:30:00,
2013-05-05 22:35:00,63.3,60.6,29.91,ENE,66,9.3,12.7,91,0.00,CLR,OVC,0.04,0.0,WeatherDisplay:10.37,2013-05-06 02:35:00,
2013-05-05 22:40:00,63.3,60.6,29.91,ENE,70,9.4,11.5,91,0.00,CLR,OVC,0.04,0.0,WeatherDisplay:10.37,2013-05-06 02:40:00,
2013-05-05 22:45:00,63.2,60.5,29.92,ENE,61,7.7,10.4,91,0.00,CLR,OVC,0.04,0.0,WeatherDisplay:10.37,2013-05-06 02:45:00,
2013-05-05 22:50:00,63.2,60.8,29.92,ENE,61,8.0,17.3,92,0.00,CLR,OVC,0.04,0.0,WeatherDisplay:10.37,2013-05-06 02:50:00,
2013-05-05 22:55:00,63.2,60.8,29.92,East,86,7.2,9.0,92,0.00,CLR,OVC,0.04,0.0,WeatherDisplay:10.37,2013-05-06 02:55:00,
2013-05-05 23:00:00,63.2,60.8,29.92,NE,54,6.1,12.7,92,0.00,CLR,OVC,0.04,0.0,WeatherDisplay:10.37,2013-05-06 03:00:00,
2013-05-05 23:05:00,63.2,60.8,29.91,NNE,26,9.1,12.0,92,0.00,CLR,OVC,0.04,0.0,WeatherDisplay:10.37,2013-05-06 03:05:00,
2013-05-05 23:10:00,63.2,60.8,29.91,ENE,76,4.8,7.0,92,0.01,RA,OVC,0.05,0.0,WeatherDisplay:10.37,2013-05-06 03:10:00,
2013-05-05 23:15:00,63.1,60.7,29.91,ENE,61,4.3,10.4,92,0.01,RA,OVC,0.05,0.0,WeatherDisplay:10.37,2013-05-06 03:15:00,
2013-05-05 23:20:00,63.1,61.0,29.91,NNE,27,2.8,9.2,93,0.01,CLR,OVC,0.05,0.0,WeatherDisplay:10.37,2013-05-06 03:20:00,
2013-05-05 23:25:00,63.0,60.9,29.90,East,84,5.6,9.2,93,0.01,CLR,OVC,0.05,0.0,WeatherDisplay:10.37,2013-05-06 03:25:00,
2013-05-05 23:30:00,62.9,60.8,29.91,East,94,5.1,8.1,93,0.01,CLR,OVC,0.05,0.0,WeatherDisplay:10.37,2013-05-06 03:30:00,
2013-05-05 23:35:00,63.0,60.9,29.91,East,80,3.4,6.9,93,0.01,CLR,OVC,0.05,0.0,WeatherDisplay:10.37,2013-05-06 03:35:00,
2013-05-05 23:40:00,62.9,60.8,29.91,NNE,13,4.1,5.0,93,0.01,CLR,OVC,0.05,0.0,WeatherDisplay:10.37,2013-05-06 03:40:00,
2013-05-05 23:45:00,62.9,60.8,29.91,East,87,0.9,3.5,93,0.01,CLR,OVC,0.05,0.0,WeatherDisplay:10.37,2013-05-06 03:45:00,
2013-05-05 23:50:00,62.9,60.8,29.91,NNE,26,1.9,4.6,93,0.01,CLR,OVC,0.05,0.0,WeatherDisplay:10.37,2013-05-06 03:50:00,
2013-05-05 23:55:00,63.0,60.9,29.91,East,79,1.7,4.6,93,0.01,CLR,OVC,0.05,0.0,WeatherDisplay:10.37,2013-05-06 03:55:00,